Regional Weather Roundup
Issued by NWS

Home | Current Version | Previous Version | Graphics & Text | Print | Product List | Glossary On
Versions: 1 2 3 4 5 6 7 8 9 10 11 12 13 14 15 16 17 18 19 20 21 22 23 24 25 26 27 28 29 30 31 32 33 34 35 36 37 38 39 40 41 42 43 44 45 46 47 48 49 50
000
ASUS43 KFSD 250110
RWRSD

WEATHER ROUNDUP FOR SOUTH DAKOTA
NATIONAL WEATHER SERVICE SIOUX FALLS SD
800 PM CDT TUE APR 24 2018

NOTE: "FAIR" INDICATES FEW OR NO CLOUDS BELOW 12,000 FEET WITH NO
SIGNIFICANT WEATHER AND/OR OBSTRUCTIONS TO VISIBILITY.


SDZ001>005-009-010-012>017-250200-
NORTHWEST AND NORTH CENTRAL SOUTH DAKOTA

CITY           SKY/WX    TMP DP  RH WIND       PRES   REMARKS
BUFFALO          N/A     51  23  33 W9        30.33F
FAITH            N/A     51  27  39 CALM      30.37F
MOBRIDGE       CLEAR     55  30  38 NE8       30.34F
$$

SDZ012>016-024>037-041>051-057-063-072>074-250200-
SOUTHWEST AND SOUTH CENTRAL SOUTH DAKOTA

CITY           SKY/WX    TMP DP  RH WIND       PRES   REMARKS
RAPID CTY ARPT PTCLDY    47  23  38 N12       30.40F
PIERRE         MOCLDY    50  31  48 N10       30.34F
CUSTER         PTCLDY    37  17  44 N5        30.38S
ELLSWORTH AFB  FAIR      48  22  36 N10       30.39F
PHILIP         PTCLDY    46  34  62 SW6       30.38F
PINE RIDGE     CLOUDY    42  26  53 NW8       30.41S
SPEARFISH      FAIR      43  25  49 W5        30.41F
WINNER         CLOUDY    42  37  82 NW10      30.36F
$$

SDZ004>011-016>023-039-040-250200-
NORTHEAST SOUTH DAKOTA

CITY           SKY/WX    TMP DP  RH WIND       PRES   REMARKS
ABERDEEN       CLEAR     52  31  44 N12       30.34S
WATERTOWN      CLEAR     46  32  58 N15       30.29S
BROOKINGS      CLOUDY    47  37  68 N9        30.28R
SISSETON         N/A     48  34  58 N14       30.31R
$$

SDZ017-020-022-023-036>040-048>070-250200-
SOUTHEAST SOUTH DAKOTA

CITY           SKY/WX    TMP DP  RH WIND       PRES   REMARKS
SIOUX FALLS    CLOUDY    46  38  73 N12       30.27S
HURON          PTCLDY    48  40  73 NW6       30.32F
CHAMBERLAIN    CLOUDY    44  42  93 NW10      30.36S
MITCHELL       CLOUDY    45  40  82 NW10      30.33S
YANKTON        CLOUDY    44  40  85 N14       30.29R
$$

ABBREVIATIONS USED IN REMARKS
   TC - TEMPERATURE IN CELSIUS
  WCI - WIND CHILL INDEX
   HX - HEAT INDEX
  VSB - VISIBILITY





USA.gov is the U.S. government's official web portal to all federal, state and local government web resources and services.